パンスターズ彗星

P/2014 A3 ( PanSTARRS ) 2023

English version
Home page
Updated on April 18, 2021

---------------------------------------------------------------------

・ プロフィール

・ 軌道要素

Epoch 2023 Apr. 6.0 TT = JDT 2460040.5
T 2023 Apr. 22.52444 TT                                 MPCW
q   3.4717630            (2000.0)            P               Q
n   0.09966121     Peri.  214.16121     +0.11437265     -0.97669925
a   4.6073579      Node   229.97825     +0.95620335     +0.15780776
e   0.2464742      Incl.   13.71743     +0.26943283     -0.14544860
P   9.89
From 54 observations 2014 Jan. 9-2015 Feb. 23, mean residual 0".3.

・ 光度変化

        m1 = 12.0 + 5 logΔ + 10.0 log r

---------------------------------------------------------------------

軌道要素はM.P.E.C. 2015-E14に掲載されたものです。
光度グラフはComet for Windowsで作成したものです。

---------------------------------------------------------------------

Copyright(C) Seiichi Yoshida (comet@aerith.net). All rights reserved.